Tracking 25710 objects as of 4-Jul-2022
HD Live streaming from Space Station
objects crossing your sky now

ONEWEB-0124

Track ONEWEB-0124 now!
10-day predictions
ONEWEB-0124 is classified as:


NORAD ID: 47270
Int'l Code: 2020-100N
Perigee: 1,219.5 km
Apogee: 1,222.2 km
Inclination: 87.9 °
Period: 109.7 minutes
Semi major axis: 7591 km
RCS: Unknown
Launch date: December 18, 2020
Source: United Kingdom (UK)
Launch site: VOSTOCHNY COSMODROME (VOSTO)
aabbcc
Your satellite tracking list
Your tracking list is empty




NASA's NSSDC Master Catalog

Two Line Element Set (TLE):
1 47270U 20100N   22184.80644533 -.00000050  00000-0 -17334-3 0  9991
2 47270  87.8977 277.6330 0001824 114.0994 246.0326 13.12444820 75115
Source of the keplerian elements: AFSPC